This is the latest recevied weather packets stored in our database for station/object SQ7IQO. If no packets are shown the sender has not sent any weather packets the latest 10 day(s).
| Time | Temp. | Humidity | Pressure | Rain* | Wind** | Luminosity | Snow |
|---|---|---|---|---|---|---|---|
| 1788100783 | 28.89° C | 41% | 1015.2 hPa | 0 mm | 0.45 m/s, ° | - | - |
| 1788100723 | 28.89° C | 40% | 1015.2 hPa | 0 mm | 0 m/s | - | - |
| 1788100663 | 28.33° C | 40% | 1015.2 hPa | 0 mm | 0.45 m/s, ° | - | - |
| 1788100603 | 28.89° C | 40% | 1015.2 hPa | 0 mm | 0.89 m/s, ° | - | - |
| 1788100543 | 28.89° C | 40% | 1015.2 hPa | 0 mm | 0.89 m/s, ° | - | - |
| 1788100483 | 28.89° C | 40% | 1015.2 hPa | 0 mm | 0.89 m/s, ° | - | - |
| 1788100424 | 29.44° C | 40% | 1015.2 hPa | 0 mm | 0.89 m/s, ° | - | - |
| 1788100363 | 28.89° C | 40% | 1015.2 hPa | 0 mm | 0.45 m/s, ° | - | - |
| 1788100304 | 28.89° C | 41% | 1015.2 hPa | 0 mm | 0 m/s | - | - |
| 1788100243 | 28.89° C | 41% | 1015.1 hPa | 0 mm | 0.45 m/s, ° | - | - |
| 1788100184 | 28.33° C | 42% | 1015.2 hPa | 0 mm | 0 m/s | - | - |
| 1788100124 | 27.78° C | 42% | 1015.1 hPa | 0 mm | 0 m/s | - | - |
| 1788100064 | 27.22° C | 44% | 1015.2 hPa | 0 mm | 0 m/s | - | - |
| 1788100003 | 26.67° C | 45% | 1015.2 hPa | 0 mm | 0 m/s | - | - |
| 1788099943 | 26.67° C | 45% | 1015.1 hPa | 0 mm | 0.45 m/s, ° | - | - |
| 1788099883 | 26.67° C | 44% | 1015.2 hPa | 0 mm | 0 m/s | - | - |
| 1788099823 | 26.67° C | 44% | 1015.2 hPa | 0 mm | 0 m/s | - | - |
| 1788099763 | 27.78° C | 44% | 1015.2 hPa | 0 mm | 0.89 m/s, ° | - | - |
| 1788099703 | 27.78° C | 42% | 1243.8 hPa | 0 mm | 0 m/s | - | - |
| 1788099643 | 28.89° C | 40% | 1015.1 hPa | 0 mm | 0.89 m/s, ° | - | - |
| 1788099583 | 29.44° C | 39% | 1015.2 hPa | 0 mm | 0 m/s | - | - |
| 1788099524 | 30° C | 38% | 1015.2 hPa | 0 mm | 0.45 m/s, ° | - | - |
| 1788099464 | 29.44° C | 39% | 1015.2 hPa | 0 mm | 0 m/s | - | - |
| 1788099404 | 29.44° C | 40% | 1015.2 hPa | 0 mm | 0 m/s | - | - |
| 1788099344 | 29.44° C | 39% | 1015.2 hPa | 0 mm | 0 m/s | - | - |
* Rain latest hour (hover to see other rain measurements)
** Current wind speed in m/s (hover to see current wind gust speed)